Year,Month,Day,Hour,Minute,Value (Times are PST for temperature in C)
2017,06,21,08,06,14.70
2017,06,21,08,07,14.70
2017,06,21,08,08,14.70
2017,06,21,08,09,14.70
2017,06,21,08,10,14.70
2017,06,21,08,11,14.80
2017,06,21,08,12,14.80
2017,06,21,08,13,14.80
2017,06,21,08,14,14.90
2017,06,21,08,15,14.90
2017,06,21,08,16,15.00
2017,06,21,08,17,15.00
2017,06,21,08,18,15.00
2017,06,21,08,19,15.00
2017,06,21,08,20,14.90
2017,06,21,08,21,14.90
2017,06,21,08,22,14.90
2017,06,21,08,23,14.90
2017,06,21,08,24,14.90
2017,06,21,08,25,14.90
2017,06,21,08,26,14.90
2017,06,21,08,27,15.00
2017,06,21,08,28,15.10
2017,06,21,08,29,15.10
2017,06,21,08,30,15.20
2017,06,21,08,31,15.20
2017,06,21,08,32,15.30
2017,06,21,08,33,15.40
2017,06,21,08,34,15.40
2017,06,21,08,35,15.50
2017,06,21,08,36,15.50
2017,06,21,08,37,15.60
2017,06,21,08,38,15.70
2017,06,21,08,39,15.70
2017,06,21,08,40,15.70
2017,06,21,08,41,15.70
2017,06,21,08,42,15.70
2017,06,21,08,43,15.70
2017,06,21,08,44,15.80
2017,06,21,08,45,15.80
2017,06,21,08,46,15.80
2017,06,21,08,47,15.80
2017,06,21,08,48,15.80
2017,06,21,08,49,15.80
2017,06,21,08,50,15.80
2017,06,21,08,51,15.90
2017,06,21,08,52,15.90
2017,06,21,08,53,15.90
2017,06,21,08,54,16.00
2017,06,21,08,55,16.10
2017,06,21,08,56,16.10
2017,06,21,08,57,16.20
2017,06,21,08,58,16.20
2017,06,21,08,59,16.30
2017,06,21,09,00,16.30
2017,06,21,09,01,16.30
2017,06,21,09,02,16.20
2017,06,21,09,03,16.30
2017,06,21,09,04,16.30
2017,06,21,09,05,16.30
2017,06,21,09,06,16.20
2017,06,21,09,07,16.20
2017,06,21,09,08,16.30
2017,06,21,09,09,16.30
2017,06,21,09,10,16.30
2017,06,21,09,11,16.30
2017,06,21,09,12,16.30
2017,06,21,09,13,16.40
2017,06,21,09,14,16.40
2017,06,21,09,15,16.40
2017,06,21,09,16,16.30
2017,06,21,09,17,16.30
2017,06,21,09,18,16.30
2017,06,21,09,19,16.40
2017,06,21,09,20,16.40
2017,06,21,09,21,16.40
2017,06,21,09,22,16.40
2017,06,21,09,23,16.50
2017,06,21,09,24,16.50
2017,06,21,09,25,16.60
2017,06,21,09,26,16.60
2017,06,21,09,27,16.60
2017,06,21,09,28,16.60
2017,06,21,09,29,16.60
2017,06,21,09,30,16.60
2017,06,21,09,31,16.60
2017,06,21,09,32,16.50
2017,06,21,09,33,16.40
2017,06,21,09,34,16.30
2017,06,21,09,35,16.30
2017,06,21,09,36,16.20
2017,06,21,09,37,16.20
2017,06,21,09,38,16.30
2017,06,21,09,39,16.30
2017,06,21,09,40,16.40
2017,06,21,09,41,16.50
2017,06,21,09,42,16.50
2017,06,21,09,43,16.60
2017,06,21,09,44,16.60
2017,06,21,09,45,16.70
2017,06,21,09,46,16.70
2017,06,21,09,47,16.70
2017,06,21,09,48,16.70
2017,06,21,09,49,16.60
2017,06,21,09,50,16.60
2017,06,21,09,51,16.60
2017,06,21,09,52,16.60
2017,06,21,09,53,16.70
2017,06,21,09,54,16.70
2017,06,21,09,55,16.80
2017,06,21,09,56,16.90
2017,06,21,09,57,17.00
2017,06,21,09,58,17.10
2017,06,21,09,59,17.10
2017,06,21,10,00,17.20
2017,06,21,10,01,17.20
2017,06,21,10,02,17.30
2017,06,21,10,03,17.30
2017,06,21,10,04,17.30
2017,06,21,10,05,17.20
2017,06,21,10,06,17.20
2017,06,21,10,07,17.10
2017,06,21,10,08,17.00
2017,06,21,10,09,16.90
2017,06,21,10,10,16.90
2017,06,21,10,11,16.90
2017,06,21,10,12,16.90
2017,06,21,10,13,17.00
2017,06,21,10,14,17.10
2017,06,21,10,15,17.20
2017,06,21,10,16,17.30
2017,06,21,10,17,17.40
2017,06,21,10,18,17.40
2017,06,21,10,19,17.40
2017,06,21,10,20,17.40
2017,06,21,10,21,17.40
2017,06,21,10,22,17.40
2017,06,21,10,23,17.40
2017,06,21,10,24,17.40
2017,06,21,10,25,17.30
2017,06,21,10,26,17.30
2017,06,21,10,27,17.30
2017,06,21,10,28,17.30
2017,06,21,10,29,17.30
2017,06,21,10,30,17.40
2017,06,21,10,31,17.40
2017,06,21,10,32,17.40
2017,06,21,10,33,17.40
2017,06,21,10,34,17.50
2017,06,21,10,35,17.50
2017,06,21,10,36,17.50
2017,06,21,10,37,17.50
2017,06,21,10,38,17.60
2017,06,21,10,39,17.60
2017,06,21,10,40,17.60
2017,06,21,10,41,17.60
2017,06,21,10,42,17.70
2017,06,21,10,43,17.60
2017,06,21,10,44,17.60
2017,06,21,10,45,17.60
2017,06,21,10,46,17.50
2017,06,21,10,47,17.60
2017,06,21,10,48,17.60
2017,06,21,10,49,17.60
2017,06,21,10,50,17.60
2017,06,21,10,51,17.40
2017,06,21,10,52,17.30
2017,06,21,10,53,17.20
2017,06,21,10,54,17.10
2017,06,21,10,55,17.00
2017,06,21,10,56,17.00
2017,06,21,10,57,16.90
2017,06,21,10,58,16.90
2017,06,21,10,59,16.80
2017,06,21,11,00,16.70
2017,06,21,11,01,16.70
2017,06,21,11,02,16.80
2017,06,21,11,03,16.80
2017,06,21,11,04,16.70
2017,06,21,11,05,16.80
2017,06,21,11,06,16.80
2017,06,21,11,07,16.70
2017,06,21,11,08,16.70
2017,06,21,11,09,16.80
2017,06,21,11,10,16.80
2017,06,21,11,11,16.90
2017,06,21,11,12,17.00
2017,06,21,11,13,17.00
2017,06,21,11,14,17.00
2017,06,21,11,15,17.00
2017,06,21,11,16,17.00
2017,06,21,11,17,16.90
2017,06,21,11,18,16.90
2017,06,21,11,19,16.80
2017,06,21,11,20,16.80
2017,06,21,11,21,16.70
2017,06,21,11,22,16.70
2017,06,21,11,23,16.70
2017,06,21,11,24,16.80
2017,06,21,11,25,16.80
2017,06,21,11,26,16.80
2017,06,21,11,27,16.80
2017,06,21,11,28,16.80
2017,06,21,11,29,16.80
2017,06,21,11,30,16.80
2017,06,21,11,31,16.90
2017,06,21,11,32,16.90
2017,06,21,11,33,16.90
2017,06,21,11,34,16.80
2017,06,21,11,35,16.80
2017,06,21,11,36,16.90
2017,06,21,11,37,16.90
2017,06,21,11,38,16.90
2017,06,21,11,39,16.90
2017,06,21,11,40,16.90
2017,06,21,11,41,16.80
2017,06,21,11,42,16.80
2017,06,21,11,43,16.80
2017,06,21,11,44,16.80
2017,06,21,11,45,16.80
2017,06,21,11,46,16.90
2017,06,21,11,47,17.00
2017,06,21,11,48,17.10
2017,06,21,11,49,17.20
2017,06,21,11,50,17.30
2017,06,21,11,51,17.30
2017,06,21,11,52,17.30
2017,06,21,11,53,17.20
2017,06,21,11,54,17.20
2017,06,21,11,55,17.20
2017,06,21,11,56,17.20
2017,06,21,11,57,17.10
2017,06,21,11,58,17.10
2017,06,21,11,59,17.10
2017,06,21,12,00,17.00
2017,06,21,12,01,17.00
2017,06,21,12,02,16.90
2017,06,21,12,03,17.00
2017,06,21,12,04,17.00
2017,06,21,12,05,17.00
2017,06,21,12,06,17.00
2017,06,21,12,07,16.90
2017,06,21,12,08,16.80
2017,06,21,12,09,16.80
2017,06,21,12,10,17.00
2017,06,21,12,11,17.10
2017,06,21,12,12,17.20
2017,06,21,12,13,17.40
2017,06,21,12,14,17.50
2017,06,21,12,15,17.50
2017,06,21,12,16,17.40
2017,06,21,12,17,17.30
2017,06,21,12,18,17.20
2017,06,21,12,19,17.10
2017,06,21,12,20,17.00
2017,06,21,12,21,16.90
2017,06,21,12,22,16.90
2017,06,21,12,23,17.00
2017,06,21,12,24,17.00
2017,06,21,12,25,17.20
2017,06,21,12,26,17.30
2017,06,21,12,27,17.30
2017,06,21,12,28,17.40
2017,06,21,12,29,17.50
2017,06,21,12,30,17.50
2017,06,21,12,31,17.40
2017,06,21,12,32,17.30
2017,06,21,12,33,17.20
2017,06,21,12,34,17.30
2017,06,21,12,35,17.30
2017,06,21,12,36,17.30
2017,06,21,12,37,17.30
2017,06,21,12,38,17.40
2017,06,21,12,39,17.40
2017,06,21,12,40,17.40
2017,06,21,12,41,17.30
2017,06,21,12,42,17.30
2017,06,21,12,43,17.30
2017,06,21,12,44,17.30
2017,06,21,12,45,17.30
2017,06,21,12,46,17.30
2017,06,21,12,47,17.40
2017,06,21,12,48,17.50
2017,06,21,12,49,17.60
2017,06,21,12,50,17.40
2017,06,21,12,51,17.30
2017,06,21,12,52,17.10
2017,06,21,12,53,17.00
2017,06,21,12,54,16.90
2017,06,21,12,55,16.80
2017,06,21,12,56,16.80
2017,06,21,12,57,16.90
2017,06,21,12,58,17.00
2017,06,21,12,59,17.10
2017,06,21,13,00,17.10
2017,06,21,13,01,17.10
2017,06,21,13,02,17.10
2017,06,21,13,03,17.10
2017,06,21,13,04,16.90
2017,06,21,13,05,16.80
2017,06,21,13,06,16.80
2017,06,21,13,07,16.80
2017,06,21,13,08,16.90
2017,06,21,13,09,17.00
2017,06,21,13,10,17.10
2017,06,21,13,11,17.30
2017,06,21,13,12,17.50
2017,06,21,13,13,17.60
2017,06,21,13,14,17.50
2017,06,21,13,15,17.60
2017,06,21,13,16,17.70
2017,06,21,13,17,17.80
2017,06,21,13,18,17.70
2017,06,21,13,19,17.60
2017,06,21,13,20,17.60
2017,06,21,13,21,17.60
2017,06,21,13,22,17.60
2017,06,21,13,23,17.60
2017,06,21,13,24,17.60
2017,06,21,13,25,17.50
2017,06,21,13,26,17.50
2017,06,21,13,27,17.50
2017,06,21,13,28,17.50
2017,06,21,13,29,17.50
2017,06,21,13,30,17.30
2017,06,21,13,31,17.30
2017,06,21,13,32,17.40
2017,06,21,13,33,17.50
2017,06,21,13,34,17.50
2017,06,21,13,35,17.50
2017,06,21,13,36,17.60
2017,06,21,13,37,17.70
2017,06,21,13,38,17.70
2017,06,21,13,39,17.70
2017,06,21,13,40,17.70
2017,06,21,13,41,17.60
2017,06,21,13,42,17.70
2017,06,21,13,43,17.50
2017,06,21,13,44,17.30
2017,06,21,13,45,17.30
2017,06,21,13,46,17.40
2017,06,21,13,47,17.50
2017,06,21,13,48,17.60
2017,06,21,13,49,17.70
2017,06,21,13,50,17.80
2017,06,21,13,51,17.90
2017,06,21,13,52,17.90
2017,06,21,13,53,17.80
2017,06,21,13,54,17.80
2017,06,21,13,55,17.80
2017,06,21,13,56,17.80
2017,06,21,13,57,17.80
2017,06,21,13,58,17.80
2017,06,21,13,59,18.00
2017,06,21,14,00,18.10
2017,06,21,14,01,18.20
2017,06,21,14,02,18.30
2017,06,21,14,03,18.20
2017,06,21,14,04,18.10
2017,06,21,14,05,18.10
2017,06,21,14,06,18.10
2017,06,21,14,07,18.00
2017,06,21,14,08,17.90
2017,06,21,14,09,17.80
2017,06,21,14,10,17.60
2017,06,21,14,11,17.60
2017,06,21,14,12,17.60
2017,06,21,14,13,17.60
2017,06,21,14,14,17.70
2017,06,21,14,15,17.80
2017,06,21,14,16,17.90
2017,06,21,14,17,17.90
2017,06,21,14,18,18.00
2017,06,21,14,19,18.10
2017,06,21,14,20,18.30
2017,06,21,14,21,18.50
2017,06,21,14,22,18.70
2017,06,21,14,23,18.80
2017,06,21,14,24,19.00
2017,06,21,14,25,19.10
2017,06,21,14,26,19.20
2017,06,21,14,27,19.20
2017,06,21,14,28,19.20
2017,06,21,14,29,19.20
2017,06,21,14,30,19.00
2017,06,21,14,31,18.80
2017,06,21,14,32,18.70
2017,06,21,14,33,18.50
2017,06,21,14,34,18.40
2017,06,21,14,35,18.40
2017,06,21,14,36,18.30
2017,06,21,14,37,18.10
2017,06,21,14,38,18.00
2017,06,21,14,39,17.90
2017,06,21,14,40,17.90
2017,06,21,14,41,18.00
2017,06,21,14,42,18.00
2017,06,21,14,43,18.10
2017,06,21,14,44,18.10
2017,06,21,14,45,18.10
2017,06,21,14,46,18.20
2017,06,21,14,47,18.20
2017,06,21,14,48,18.10
2017,06,21,14,49,18.10
2017,06,21,14,50,18.10
2017,06,21,14,51,18.10
2017,06,21,14,52,18.20
2017,06,21,14,53,18.20
2017,06,21,14,54,18.10
2017,06,21,14,55,18.10
2017,06,21,14,56,18.10
2017,06,21,14,57,18.20
2017,06,21,14,58,18.30
2017,06,21,14,59,18.50
2017,06,21,15,00,18.60
2017,06,21,15,01,18.60
2017,06,21,15,02,18.70
2017,06,21,15,03,18.80
2017,06,21,15,04,18.70
2017,06,21,15,05,18.60
2017,06,21,15,06,18.30
2017,06,21,15,07,18.20
2017,06,21,15,08,18.10
2017,06,21,15,09,18.00
2017,06,21,15,10,17.90
2017,06,21,15,11,17.80
2017,06,21,15,12,17.80
2017,06,21,15,13,17.70
2017,06,21,15,14,17.60
2017,06,21,15,15,17.50
2017,06,21,15,16,17.30
2017,06,21,15,17,17.30
2017,06,21,15,18,17.30
2017,06,21,15,19,17.20
2017,06,21,15,20,17.20
2017,06,21,15,21,17.30
2017,06,21,15,22,17.30
2017,06,21,15,23,17.30
2017,06,21,15,24,17.20
2017,06,21,15,25,17.20
2017,06,21,15,26,17.30
2017,06,21,15,27,17.30
2017,06,21,15,28,17.30
2017,06,21,15,29,17.50
2017,06,21,15,30,17.70
2017,06,21,15,31,17.80
2017,06,21,15,32,17.90
2017,06,21,15,33,18.00
2017,06,21,15,34,18.00
2017,06,21,15,35,18.00
2017,06,21,15,36,18.00
2017,06,21,15,37,18.00
2017,06,21,15,38,17.90
2017,06,21,15,39,17.70
2017,06,21,15,40,17.60
2017,06,21,15,41,17.50
2017,06,21,15,42,17.50
2017,06,21,15,43,17.60
2017,06,21,15,44,17.60
2017,06,21,15,45,17.80
2017,06,21,15,46,17.80
2017,06,21,15,47,17.80
2017,06,21,15,48,17.80
2017,06,21,15,49,17.80
2017,06,21,15,50,17.70
2017,06,21,15,51,17.80
2017,06,21,15,52,17.90
2017,06,21,15,53,17.90
2017,06,21,15,54,18.00
2017,06,21,15,55,18.00
2017,06,21,15,56,17.90
2017,06,21,15,57,17.90
2017,06,21,15,58,17.80
2017,06,21,15,59,17.90
2017,06,21,16,00,18.00
2017,06,21,16,01,18.10
2017,06,21,16,02,18.10
2017,06,21,16,03,18.00
2017,06,21,16,04,18.00
2017,06,21,16,05,18.10
2017,06,21,16,06,18.20
2017,06,21,16,07,18.10
2017,06,21,16,08,18.00
2017,06,21,16,09,17.90
2017,06,21,16,10,17.80
2017,06,21,16,11,17.80
2017,06,21,16,12,17.80
2017,06,21,16,13,17.70
2017,06,21,16,14,17.80
2017,06,21,16,15,17.80
2017,06,21,16,16,17.90
2017,06,21,16,17,17.90
2017,06,21,16,18,17.90
2017,06,21,16,19,17.80
2017,06,21,16,20,17.70
2017,06,21,16,21,17.70
2017,06,21,16,22,17.70
2017,06,21,16,23,17.70
2017,06,21,16,24,17.80
2017,06,21,16,25,17.80
2017,06,21,16,26,17.80
2017,06,21,16,27,17.80
2017,06,21,16,28,17.80
2017,06,21,16,29,17.80
2017,06,21,16,30,17.80
2017,06,21,16,31,17.80
2017,06,21,16,32,17.80
2017,06,21,16,33,17.80
2017,06,21,16,34,17.80
2017,06,21,16,35,17.80
2017,06,21,16,36,17.80
2017,06,21,16,37,17.70
2017,06,21,16,38,17.70
2017,06,21,16,39,17.60
2017,06,21,16,40,17.70
2017,06,21,16,41,17.70
2017,06,21,16,42,17.70
2017,06,21,16,43,17.60
2017,06,21,16,44,17.70
2017,06,21,16,45,17.80
2017,06,21,16,46,17.80
2017,06,21,16,47,17.80
2017,06,21,16,48,17.80
2017,06,21,16,49,17.70
2017,06,21,16,50,17.80
2017,06,21,16,51,17.80
2017,06,21,16,52,17.80
2017,06,21,16,53,17.90
2017,06,21,16,54,18.00
2017,06,21,16,55,18.00
2017,06,21,16,56,18.00
2017,06,21,16,57,18.00
2017,06,21,16,58,18.00
2017,06,21,16,59,17.90
2017,06,21,17,00,17.90
2017,06,21,17,01,18.00
2017,06,21,17,02,18.00
2017,06,21,17,03,18.10
2017,06,21,17,04,18.10
2017,06,21,17,05,18.00
2017,06,21,17,06,17.80
2017,06,21,17,07,17.80
2017,06,21,17,08,17.70
2017,06,21,17,09,17.70
2017,06,21,17,10,17.70
2017,06,21,17,11,17.70
2017,06,21,17,12,17.70
2017,06,21,17,13,17.80
2017,06,21,17,14,17.80
2017,06,21,17,15,17.90
2017,06,21,17,16,17.90
2017,06,21,17,17,17.90
2017,06,21,17,18,17.80
2017,06,21,17,19,17.80
2017,06,21,17,20,17.90
2017,06,21,17,21,17.90
2017,06,21,17,22,17.80
2017,06,21,17,23,17.70
2017,06,21,17,24,17.70
2017,06,21,17,25,17.80
2017,06,21,17,26,17.80
2017,06,21,17,27,17.80
2017,06,21,17,28,17.80
2017,06,21,17,29,17.80
2017,06,21,17,30,17.80
2017,06,21,17,31,17.80
2017,06,21,17,32,17.80
2017,06,21,17,33,17.80
2017,06,21,17,34,17.90
2017,06,21,17,35,17.90
2017,06,21,17,36,17.90
2017,06,21,17,37,18.00
2017,06,21,17,38,17.90
2017,06,21,17,39,17.90
2017,06,21,17,40,18.00
2017,06,21,17,41,18.00
2017,06,21,17,42,18.00
2017,06,21,17,43,18.00
2017,06,21,17,44,18.00
2017,06,21,17,45,18.10
2017,06,21,17,46,18.10
2017,06,21,17,47,18.10
2017,06,21,17,48,18.20
2017,06,21,17,49,18.20
2017,06,21,17,50,18.20
2017,06,21,17,51,18.30
2017,06,21,17,52,18.20
2017,06,21,17,53,18.20
2017,06,21,17,54,18.20
2017,06,21,17,55,18.20
2017,06,21,17,56,18.20
2017,06,21,17,57,18.20
2017,06,21,17,58,18.20
2017,06,21,17,59,18.40
2017,06,21,18,00,18.40
2017,06,21,18,01,18.40
2017,06,21,18,02,18.40
2017,06,21,18,03,18.30
2017,06,21,18,04,18.20
2017,06,21,18,05,18.20
2017,06,21,18,06,18.20
2017,06,21,18,07,18.20
2017,06,21,18,08,18.20
2017,06,21,18,09,18.20
2017,06,21,18,10,18.10
2017,06,21,18,11,18.10
2017,06,21,18,12,18.10
2017,06,21,18,13,18.10
2017,06,21,18,14,18.10
2017,06,21,18,15,18.10
2017,06,21,18,16,18.10
2017,06,21,18,17,18.10
2017,06,21,18,18,18.10
2017,06,21,18,19,18.00
2017,06,21,18,20,18.00
2017,06,21,18,21,18.10
2017,06,21,18,22,18.10
2017,06,21,18,23,18.20
2017,06,21,18,24,18.20
2017,06,21,18,25,18.20
2017,06,21,18,26,18.20
2017,06,21,18,27,18.20
2017,06,21,18,28,18.20
2017,06,21,18,29,18.20
2017,06,21,18,30,18.20
2017,06,21,18,31,18.20
2017,06,21,18,32,18.20
2017,06,21,18,33,18.10
2017,06,21,18,34,18.10
2017,06,21,18,35,18.10
2017,06,21,18,36,18.10
2017,06,21,18,37,18.10
2017,06,21,18,38,18.00
2017,06,21,18,39,17.90
2017,06,21,18,40,17.80
2017,06,21,18,41,17.70
2017,06,21,18,42,17.70
2017,06,21,18,43,17.70
2017,06,21,18,44,17.70
2017,06,21,18,45,17.70
2017,06,21,18,46,17.80
2017,06,21,18,47,17.80
2017,06,21,18,48,17.80
2017,06,21,18,49,17.80
2017,06,21,18,50,17.70
2017,06,21,18,51,17.70
2017,06,21,18,52,17.70
2017,06,21,18,53,17.80
2017,06,21,18,54,17.80
2017,06,21,18,55,17.80
2017,06,21,18,56,17.80
2017,06,21,18,57,17.80
2017,06,21,18,58,17.80
2017,06,21,18,59,17.80
2017,06,21,19,00,17.80
2017,06,21,19,01,17.80
2017,06,21,19,02,17.80
2017,06,21,19,03,17.80
2017,06,21,19,04,17.80
